www.pogodaiklimat.ru

Погода и климат >> Архив погоды >> Россия >> Оренбургская область >> Беляевка


ПОГОДА в Беляевке

  • Прогноз погоды в Беляевке
  • Монитор погоды в Беляевке
  • Климат города

АРХИВ ПОГОДЫ в Беляевке

Время (UTC), дата Ветер
(напр.,м/с)
 
Видим.   Явления Облачность Т
(С)
Тd
(С)
f
(%)
Тe
(С)
Тes
(С)
Комфортность P
(гПа)
Po
(гПа)
Тmin
(С)
Tmax
(С)
R
(мм)
R24
(мм)
S
(см)
18 10.07 З 1 10 км ясно +21.8 +10.5 49 +24 +24 комфорт 1009.7 994.3
21 10.07 ЮВ 1 10 км ясно +14.7 +9.8 72 +15 +15 1010.2 994.4
00 11.07 штиль 0 20 км ясно +13.5 +9.9 79 +13 +13 1010.4 994.6
03 11.07 З 3 20 км ясно +20.5 +11.4 56 +23 +26 комфорт 1010.4 994.9 +13.3
06 11.07 СЗ 5 20 км 3/3 600 м
[Cu med, cong]
+27.2 +11.0 36 +28 +33 жарко 1009.9 994.8
09 11.07 СЗ 5
{11}
20 км 8/8 800 м
[Cb cap]
+29.0 +12.2 35 +30 +32 жарко 1009.0 994.0
12 11.07 СЗ 4 20 км 6/6 870 м
[Cu med, cong]
+30.0 +11.5 32 +31 +33 жарко 1007.8 992.8
15 11.07 СЗ 4 20 км 3/3 600 м
[Cu med, cong]
+29.0 +10.9 33 +30 +30 жарко 1007.3 992.3 +30.5
18 11.07 СЗ 1 10 км ясно +22.8 +11.5 49 +25 +25 комфорт 1008.0 992.6
21 11.07 З 1 10 км ясно +18.4 +13.1 71 +20 +20 1008.0 992.5
00 12.07 З 1 20 км ясно +16.8 +12.7 77 +18 +18 1008.1 992.5
03 12.07 З 3 20 км ясно +20.9 +14.4 66 +24 +27 комфорт 1008.5 993.0 +16.2
06 12.07 С 2 20 км 3/3 600 м
[Cu med, cong]
+26.3 +15.3 51 +29 +39 жарко 1007.4 992.3
09 12.07 СЗ 4 20 км 9/6 800 м
[Cu med, cong Ci fib]
+28.7 +13.2 39 +30 +34 жарко 1006.5 991.5
12 12.07 СЗ 4 20 км 9/6 660 м
[Cu med, cong Ci fib]
+29.3 +12.3 35 +30 +32 жарко 1006.0 991.0
15 12.07 С 3 20 км 6/0
[Ac trans Ci fib]
+27.1 +11.7 38 +28 +29 жарко 1005.9 990.8 +29.7
18 12.07 С 2 10 км 9/0
[Ac trans]
+23.2 +13.8 55 +27 +27 душно 1006.4 991.1
21 12.07 СЗ 2 10 км ясно +19.8 +13.3 66 +22 +22 комфорт 1006.3 990.9
00 13.07 З 2 20 км ясно +16.0 +12.4 79 +16 +16 1006.8 991.1
03 13.07 СЗ 2 20 км ясно +20.0 +14.1 69 +23 +26 комфорт 1006.9 991.4 +15.4
06 13.07 СЗ 5 20 км 9/9 800 м
[Cu med, cong]
+24.5 +12.6 47 +26 +27 жарко 1006.3 991.1
09 13.07 З 5
{12}
20 км 8/8 800 м
[Cu med, cong]
+27.3 +11.6 38 +28 +30 жарко 1005.2 990.1
12 13.07 СЗ 5-10
{10}
20 км 6/6 840 м
[Cu med, cong]
+28.3 +10.8 34 +29 +31 жарко 1004.4 989.4
15 13.07 СЗ 4
{10}
20 км 6/0
[Ci ing]
+26.8 +11.5 38 +28 +28 жарко 1004.5 989.4 +28.5
18 13.07 СЗ 2 10 км ясно +21.8 +12.7 56 +24 +24 комфорт 1005.1 989.8
21 13.07 З 2 10 км ясно +17.4 +11.7 69 +18 +18 1005.3 989.7
00 14.07 З 1 20 км 9/0
[Ac trans]
+16.4 +12.6 78 +17 +17 1005.6 990.0
03 14.07 СЗ 1 20 км 9/0
[Ac und]
+18.6 +14.9 79 +20 +22 1006.1 990.6 +16.2
06 14.07 СЗ 2 20 км 9/0
[Ac trans]
+25.1 +16.2 58 +28 +35 жарко 1005.9 990.8
09 14.07 С 1 20 км 8/8 800 м
[Cu med, cong]
+28.1 +12.9 39 +30 +33 жарко 1005.0 990.0
12 14.07 СЗ 3 20 км 8/8 800 м
[Cu med, cong]
+29.2 +10.3 31 +29 +31 жарко 1004.0 989.0
15 14.07 СВ 2 20 км 8/8 800 м
[Cu med, cong]
+27.7 +14.0 43 +30 +30 жарко 1004.3 989.3 +30.2
18 14.07 штиль 0 10 км 3/0
[Ci fib]
+21.7 +14.4 63 +25 +25 комфорт 1005.4 990.1
21 14.07 В 3 10 км ясно +19.1 +14.6 75 +21 +21 комфорт 1005.8 990.3
00 15.07 В 1 4000 м дымка ясно +16.2 +14.5 90 +17 +17 1007.0 991.3
03 15.07 В 3 20 км ясно +20.5 +15.9 75 +24 +27 комфорт 1007.7 992.3 +15.9
06 15.07 СВ 4 20 км 3/0
[Ci sp]
+26.3 +16.5 55 +30 +38 душно 1007.2 992.1
09 15.07 В 3 20 км 4/4 600 м
[Cu med, cong]
+29.9 +14.0 38 +32 +40 жарко 1006.6 991.7
12 15.07 В 4 20 км 6/6 840 м
[Cu med, cong]
+30.4 +12.8 34 +31 +34 жарко 1006.2 991.3
15 15.07 В 4 20 км 8/0
[Ci ing]
+30.3 +13.8 37 +32 +32 жарко 1006.4 991.5 +31.9
18 15.07 СВ 3 10 км 10/0
[As op]
+25.9 +15.9 54 +29 +29 душно 1007.8 992.7
21 15.07 В 5 10 км 10/0
[As op]
+25.3 +13.3 47 +27 +27 жарко 1008.4 993.2
00 16.07 В 3 20 км 10/0
[As op]
+20.5 +13.9 66 +23 +23 комфорт 1009.9 994.4
03 16.07 В 6 20 км ясно +22.9 +14.9 61 +27 +28 душно 1011.0 995.6 +19.0
06 16.07 В 7-10
{10}
20 км 3/0
[Ci fib]
+27.9 +12.6 39 +29 +33 жарко 1010.5 995.4
09 16.07 В 5-10
{12}
20 км 4/0
[Ci sp]
+30.5 +10.4 29 +30 +38 жарко 1009.4 994.4
12 16.07 В 7-11
{12}
20 км 8/0
[Ci sp]
+31.6 +11.5 29 +32 +34 жарко 1008.3 993.5
15 16.07 В 5
{12}
20 км 9/0
[Ci]
+29.3 +11.7 34 +30 +30 жарко 1008.7 993.7 +32.2
18 16.07 В 3 10 км 9/0
[Ci fib]
+25.1 +12.1 44 +27 +27 жарко 1009.4 994.2
21 16.07 В 6
{11}
10 км ясно +24.6 +12.3 46 +26 +26 жарко 1009.7 994.4
00 17.07 В 7-11
{12}
20 км 9/0
[Ac trans Ci fib]
+22.8 +10.6 46 +25 +25 комфорт 1008.9 993.5
03 17.07 В 7-11
{11}
20 км 8/0
[Ac trans]
+24.8 +10.3 40 +26 +26 жарко 1009.4 994.1 +21.9
06 17.07 В 8-11
{13}
20 км 9/0
[Ac trans Ci fib]
+30.4 +11.2 31 +31 +32 жарко 1008.7 993.7
09 17.07 ЮВ 5
{14}
20 км 10/10
[Cb cap]
+31.5 +11.1 29 +32 +32 жарко 1007.7 992.8
12 17.07 Ю 5-11
{11}
20 км {ливн. осадки} 10/10 660 м
[Cb cap]
+27.4 +14.7 46 +30 +30 жарко 1008.3 993.2
15 17.07 С 1
{11}
10 км {ливн. осадки} 9/9 630 м
[Cb cap]
+22.0 +18.8 82 +27 +27 душно 1007.6 992.3 +31.8 0.4

 

Местоположение метеостанции Беляевка (Оренбургская область, Россия): широта 51.42 долгота 56.42 высота над уровнем моря 131 м.

В архиве по умолчанию представлена погода в Беляевке за последнюю неделю. Архивные данные за месяц целиком и за предыдущие месяцы, начиная с января 2011 года, Вы можете получить, выбрав интересующий диапазон дат из раскрывающегося списка и нажав кнопку "Ввод!".


*Определитесь, кто Вы:
робот инопланетянин человек

Внимание! Время в таблицах - всемирное. Для получения местного времени необходимо прибавить поправку, которая в Беляевке равна 5 ч.

Смотрите также архив погоды в соседних городах и на ближайших метеорологических станциях:

Погода в Кувандыке (Оренбургская область, Россия) (66 км)
Погода в Акбулаке (Оренбургская область, Россия) (71 км)
Погода в Новокуйбышевске (Самарская область, Россия) (71 км)
Погода в Мартуке (Актюбинская область, Казахстан) (75 км)
Погода в Оренбурге (Оренбургская область, Россия) (96 км)
Погода в Троицком Т (Оренбургская область, Россия) (101 км)
Погода в Родниковке (Актюбинская область, Казахстан) (101 км)
Погода в Татарской Каргале (Оренбургская область, Россия) (101 км)
Погода в Соль-Илецк (Оренбургская область, Россия) (102 км)
Погода в Зилаире (Башкирия, Россия) (112 км)

Пояснения к столбцам:

Ветер - указаны скорость ветра в м/с - средняя за 10 мин, порывы в срок и между сроками (в фигурных скобках) и направление, откуда дует ветер: С - северный, СВ - северо-восточный, В - восточный, ЮВ - юго-восточный, Ю - южный, ЮЗ - юго-западный, З - западный, СЗ - северо-западный.
Видимость - горизонтальная дальность видимости в метрах или километрах. При видимости от 1 до 10 км при отсутствии осадков обычно наблюдается дымка, при ухудшении видимости до 1 км и менее - туман. В сухую погоду видимость может ухудшаться дымом, пылью или мглою.
Явления - указаны атмосферные явления, наблюдавшиеся в срок или в последний час перед сроком; фигурными скобками обозначены явления, наблюдавшиеся между сроками (за 1-3 часа до срока); квадратными скобками обозначены град или гололедные отложения с указанием их диаметра в мм.
Облачность - указаны через наклонную черту общая и нижняя облачность в баллах и высота нижней границы облаков в метрах; квадратными скобками обозначены формы облаков: Ci - перистые, Cs - перисто-слоистые, Cc - перисто-кучевые, Ac - высококучевые, As - высокослоистые, Sc - слоисто-кучевые, Ns - слоисто-дождевые, Cu - кучевые, Cb - кучево-дождевые. Подробнее классификацию облаков см. в Атласе облаков (PDF).
T - Температура воздуха - температура, измеренная на высоте 2 м над землей.
Td - Температура точки росы - температура, при понижении до которой содержащийся в воздухе водяной пар достигнет насыщения.
f - Относительная влажность воздуха - влажноcть воздуха, измеренная на высоте 2 м над землей.
Te - Эффективная температура - температура, которую ощущает одетый по сезону человек в тени. Характеристика душности погоды. При расчете учитывается влияние влажности воздуха и скорости ветра на теплоощущения человека.
Tes - Эффективная температура на солнце - температура, которую ощущает человек, с поправкой на солнечный нагрев. Характеристика знойности погоды. Зависит от высоты солнца над горизонтом, облачности и скорости ветра. Ночью, в пасмурную погоду, а также при ветре 12 м/с и более поправка равна нулю.
P - Атмосферное давление - приведенное к уровню моря атмосферное давление.
Po - Атмосферное давление - измеренное на уровне метеостанции атмосферное давление.
Tmin - Минимальная температура - минимум температуры воздуха на высоте 2 м над землей.
Tmax - Максимальная температура - максимум температуры воздуха на высоте 2 м над землей.
R - Количество осадков - Количество выпавших осадков за период времени, мм. При наведении курсора мыши на число - период времени, за который выпало указанное количество осадков.
R24 - Количество осадков - Количество выпавших осадков за 24 часа, мм.
S - Снежный покров - Высота снежного покрова, см. При наведении курсора мыши на число - состояние снежного покрова и степень покрытия местности в баллах.